Location: ?
(35.3936°N, 139.6097°E)
Time: 17:51:14
(UTC+00:00)

Daily predictions for brighter satellites

Satellite Brightness Start Highest point End
(mag) Time Altitude Azimuth Time Altitude Azimuth Time Altitude Azimuth
Cosmos 2219 Rocket 2.0 12:02:42 25° S 12:06:03 73° ESE 12:11:39 10° NNE
Cosmos 1328 4.4 12:04:13 27° SSW 12:06:08 55° W 12:10:02 10° N
Cosmos 2263 Rocket 4.3 12:03:13 10° NW 12:07:03 19° W 12:10:52 10° SW
Cosmos 1825 Rocket 4.1 12:04:53 23° SSW 12:07:32 57° W 12:11:55 10° N
Cosmos 2360 Rocket 3.7 12:02:48 10° SW 12:07:56 35° WNW 12:13:06 10° N
USA 215 3.6 12:06:26 10° NE 12:12:55 67° NW 12:19:23 10° WSW
Alouette 2 Rocket 3.8 12:09:28 10° N 12:13:36 85° E 12:15:09 46° SSE
Cosmos 2333 Rocket 2.2 12:10:05 18° SSW 12:14:24 87° WNW 12:20:09 10° NNE
Cosmos 1538 Rocket 3.9 12:13:41 38° S 12:15:49 78° ESE 12:21:11 10° NNE
Terra 2.4 12:17:15 40° E 12:17:43 41° ENE 12:22:10 10° N
DELTA 2 R/B (1) 3.4 12:14:20 10° WSW 12:19:53 74° SSE 12:24:46 14° ENE
Cosmos 1455 3.8 12:17:31 10° NNW 12:20:55 30° W 12:22:08 25° SW
ATLAS CENTAUR R/B 3.2 12:19:08 10° N 12:21:27 16° NE 12:21:27 16° NE
Delta 2 Rocket 4.0 12:21:37 10° W 12:23:46 37° W 12:23:46 37° W
CARTOSAT-1 3.4 12:27:22 80° SSE 12:27:36 90° SSW 12:31:57 10° NNW
OAO 1 Rocket 4.3 12:27:41 10° W 12:33:02 82° S 12:33:48 65° ESE
ERS-1 Rocket 3.0 12:36:53 58° SSW 12:37:44 72° WSW 12:42:46 10° NNW
Resurs 01 Rocket 4.3 12:39:08 10° WSW 12:40:41 12° W 12:42:13 10° WNW
Cosmos 2278 Rocket 3.4 12:38:16 10° N 12:43:08 29° ENE 12:43:59 27° ENE
Cosmos 2074 Rocket 3.9 12:45:56 59° SSE 12:47:07 76° E 12:53:20 10° N
SL-16 R/B 4.3 12:49:42 13° ENE 12:49:42 13° ENE 12:50:52 10° ENE
Meteor 2-17 Rocket 4.4 12:47:24 59° ESE 12:47:57 62° E 12:53:55 10° NNE
Cosmos 2181 Rocket 4.0 12:42:08 10° N 12:48:26 75° W 12:50:03 51° SSW
Cosmos 1844 Rocket 3.2 12:43:36 10° NW 12:48:54 46° WSW 12:49:56 41° SW
Cosmos 1315 Rocket 3.5 12:52:23 10° NNW 12:55:42 55° NNW 12:55:42 55° NNW
SPOT 5 3.4 12:57:46 49° WSW 12:58:15 51° W 13:03:03 10° NNW
Cosmos 2221 3.2 12:54:51 10° N 12:58:15 49° NNE 12:58:15 49° NNE
In-Cosmos 22 Rocket 4.0 13:01:12 76° ENE 13:01:12 76° ENE 13:06:19 10° NNE
Cosmos 2327 Rocket 4.3 13:08:57 74° SE 13:09:22 78° E 13:15:32 10° N
Cosmos 1892 4.4 13:12:12 30° N 13:12:12 30° N 13:14:13 10° N
Cosmos 1680 Rocket 3.6 13:14:19 72° NNE 13:14:19 72° NNE 13:19:07 10° NNE
BREEZE-M R/B 3.6 13:07:09 10° NW 13:15:48 74° NE 13:15:56 74° NE
Cosmos 2058 4.2 13:24:06 39° NNW 13:24:06 39° NNW 13:26:55 10° N
Cosmos 1295 Rocket 4.4 13:23:59 71° E 13:23:59 71° E 13:29:59 10° N
Cosmos 1610 Rocket 4.4 13:27:53 73° SW 13:28:24 78° W 13:34:46 10° N
Cosmos 1980 4.0 13:27:59 59° W 13:28:31 61° WNW 13:34:06 10° NNE
MOS 1-B Rocket 4.1 13:29:29 10° NNE 13:36:55 84° ESE 13:37:22 78° SSE
Cosmos 2344 3.4 13:36:20 51° SW 13:38:31 83° WNW 13:46:14 10° NNE
Cosmos 2237 Rocket 3.0 13:46:07 43° W 13:46:56 46° WNW 13:52:24 10° N
ATLAS 2AS CENTAUR R/B 3.2 13:40:59 10° NNW 13:48:10 50° NE 13:49:25 45° E
ALOS 2 4.2 13:51:05 29° NNE 13:51:05 29° NNE 13:53:39 10° N
Atlas Centaur 2 3.9 13:45:29 10° W 13:48:32 27° WSW 13:48:32 27° WSW
Terra 4.0 13:56:08 17° W 13:56:08 17° W 13:58:39 10° NW
ATLAS CENTAUR R/B 4.1 13:57:15 10° NW 13:57:36 12° NW 13:57:36 12° NW
Cosmos 2218 Rocket 4.2 14:07:02 64° ENE 14:07:02 64° ENE 14:12:44 10° NNE
DELTA 2 R/B (1) 4.2 14:00:59 10° W 14:11:37 12° ENE 14:12:02 10° ENE
Cosmos 2366 rocket 4.1 14:13:14 67° NE 14:13:14 67° NE 14:18:59 10° N
USA 267 3.2 14:24:46 72° W 14:24:46 72° W 14:30:49 10° NW
Cosmos 2278 Rocket 3.5 14:22:07 10° NW 14:25:49 30° WNW 14:25:49 30° WNW
Cosmos 2297 4.2 14:22:47 10° NNW 14:27:40 54° NNE 14:27:40 54° NNE
SL-16 R/B 2.8 14:31:33 53° NW 14:31:33 53° NW 14:36:32 10° NNE
Cosmos 1943 Rocket 3.5 14:32:03 10° N 14:37:06 32° ENE 14:37:15 32° ENE
BREEZE-M DEB (TANK) 4.4 14:29:51 10° SW 14:47:05 87° NNW 14:51:46 10° ENE
Meteor 2-3 Rocket 4.2 14:49:38 55° NNW 14:49:38 55° NNW 14:54:17 10° N
COSMOS 2455 3.4 14:56:55 10° NNW 15:02:47 50° ENE 15:02:56 50° ENE
Cosmos 1727 Rocket 4.1 14:58:52 10° N 15:04:27 71° NNW 15:04:27 71° NNW
Cosmos 1603 4.2 15:07:04 54° NE 15:07:04 54° NE 15:11:29 10° NNE
NOSS 3-4 (A) 4.4 15:04:15 10° NW 15:10:10 44° W 15:10:10 44° W
NOSS 3-4 (C) 4.4 15:04:21 10° NW 15:10:18 45° W 15:10:18 45° W
Cosmos 1452 Rocket 4.4 15:09:57 10° NNW 15:13:36 46° NNW 15:13:36 46° NNW
Cosmos 2369 Rocket 2.8 15:14:54 10° N 15:20:05 50° NE 15:20:05 50° NE
Resurs 1-4 Rocket 3.8 15:19:45 10° NE 15:23:22 23° E 15:23:22 23° E
SeaSat 1 3.4 15:29:02 10° NNE 15:32:28 41° ENE 15:32:28 41° ENE
ATLAS 2AS CENTAUR R/B 4.0 15:32:42 10° NW 15:36:49 26° W 15:36:49 26° W
Meteor 2-20 4.5 15:39:20 10° N 15:45:29 70° E 15:45:35 70° E
CZ-2D R/B 2.9 15:47:34 10° NNE 15:52:16 44° E 15:52:16 44° E
DELTA 2 R/B (1) 3.9 15:52:33 57° NNW 15:53:23 64° N 15:58:58 10° E
ISS -0.8 16:06:22 17° N 16:06:22 17° N 16:07:33 10° NNE
Cosmos 1943 4.0 16:08:55 39° WNW 16:08:56 39° WNW 16:14:13 10° N
NPP 3.9 16:05:34 10° NNE 16:10:50 57° E 16:10:50 57° E
Lacrosse 5 2.8 16:11:59 40° E 16:11:59 40° E 16:15:47 10° NE
SEDSat Delta rocket 4.2 16:17:27 54° SE 16:17:27 54° SE 16:22:46 10° E
Cosmos 2123 Rocket 4.0 16:10:43 10° NNW 16:16:47 65° W 16:16:47 65° W
Cosmos 1943 Rocket 3.7 16:15:50 10° NW 16:18:44 24° WNW 16:18:44 24° WNW
RESURS DK-1 4.2 16:18:14 10° NNW 16:20:01 24° NNW 16:20:01 24° NNW
Cosmos 1470 Rocket 4.0 16:30:19 61° N 16:30:19 61° N 16:34:02 10° N
Cosmos 1153 Rocket 4.4 16:29:14 67° S 16:30:09 86° E 16:36:23 10° N
BREEZE-M TANK 3.6 16:32:02 35° NE 16:32:02 35° NE 16:33:50 10° NE
SL-16 R/B 2.4 16:31:12 60° SSE 16:32:29 89° ENE 16:38:46 10° NNW
AQUA 3.9 16:28:15 10° NNE 16:32:50 73° ENE 16:32:50 73° ENE
Cosmos 2251 Rocket 3.4 16:35:35 72° SE 16:35:47 73° ESE 16:41:01 10° NNE
Cosmos 1605 Rocket 4.2 16:35:51 51° W 16:36:25 52° W 16:42:36 10° N
CZ-4C R/B 2.9 16:32:42 10° NW 16:40:21 79° WSW 16:45:21 28° SSE
ARIANE 5 R/B 4.2 16:37:04 10° NE 16:41:15 25° E 16:43:03 21° SE
Cosmos 1633 Rocket 4.5 16:43:03 28° NW 16:43:03 28° NW 16:45:56 10° NNW
Lacrosse 5 rocket 2.7 16:42:11 10° NNW 16:44:17 30° NNW 16:44:17 30° NNW
Cosmos 1862 Rocket 4.0 16:43:58 10° NNW 16:47:35 53° NW 16:47:35 53° NW
Iridium 4 Rocket 4.3 16:49:39 43° W 16:49:51 43° W 16:55:20 10° NNW
CZ-4B R/B 3.4 16:51:55 10° N 16:57:00 70° WNW 16:57:29 65° WSW
Cosmos 1184 Rocket 4.3 16:59:47 34° N 16:59:47 34° N 17:01:45 10° N
Cosmos 1992 Rocket 4.3 16:58:14 10° N 17:03:27 65° ENE 17:06:25 26° SSE
Cosmos 405 Rocket 2.8 17:03:52 71° E 17:03:52 71° E 17:07:39 10° NNE
Meteor 1-4 Rocket 3.4 17:00:06 10° NNW 17:02:50 45° NNW 17:02:50 45° NNW
Resurs 1-4 Rocket 2.9 16:59:01 10° N 17:03:50 36° WNW 17:04:26 35° W
Cosmos 2369 Rocket 4.1 17:00:10 10° WNW 17:01:50 15° WNW 17:01:50 15° WNW
Cosmos 292 Rocket 4.0 17:01:09 10° NNW 17:05:23 52° W 17:05:23 52° W
GPS 2-04 Rocket1 3.4 17:07:27 42° ESE 17:07:27 42° ESE 17:10:16 10° E
ASTRO E2 4.4 17:09:30 22° ESE 17:09:30 22° ESE 17:11:21 10° ESE
IRS-P3 4.2 17:03:07 10° NNE 17:08:28 75° ESE 17:10:07 45° S
Okean 1 3.1 17:06:09 10° N 17:10:08 88° E 17:10:09 88° ESE
OAO 3 Copernicus 4.4 17:10:51 53° S 17:10:51 53° S 17:15:14 10° ESE
SeaSat 1 4.3 17:07:42 10° NNW 17:10:58 18° NW 17:12:14 16° WNW
Okean 1-7 3.3 17:07:38 10° N 17:12:02 66° E 17:13:21 42° SSE
Cosmos 2173 Rocket 4.0 17:12:08 43° SSW 17:14:19 73° W 17:20:42 10° N
Cosmos 1933 Rocket 4.3 17:14:40 37° WNW 17:14:40 37° WNW 17:18:27 10° N
ADEOS II 2.0 17:10:47 10° N 17:16:03 77° WNW 17:17:29 49° SSW
Cosmos 1869 Rocket 3.5 17:16:23 58° SSE 17:17:10 79° E 17:21:30 10° N
Cosmos 2016 Rocket 3.9 17:20:10 34° S 17:23:02 87° E 17:29:12 10° N
Meteor 2-4 Rocket 4.4 17:17:39 10° N 17:23:30 56° E 17:29:16 10° SSE
Meteor 1-18 Rocket 4.2 17:18:11 10° NNW 17:24:02 75° W 17:26:43 33° S
CZ-2D R/B 4.4 17:20:53 10° NNE 17:25:07 44° E 17:27:06 26° SSE
H-2A R/B 4.3 17:24:13 10° SE 17:27:53 25° ENE 17:31:30 10° NNE
Cosmos 1703 Rocket 3.5 17:25:26 10° NNW 17:29:52 65° W 17:30:51 49° SSW
Cosmos 1864 Rocket 4.4 17:27:03 28° S 17:30:30 83° E 17:36:39 10° N
IRS-1D 4.1 17:26:55 10° N 17:31:34 41° WNW 17:32:44 35° WSW
CZ-2D R/B 3.7 17:28:32 10° NNW 17:32:21 21° WNW 17:33:36 19° W
Meteor 1-28 Rocket 3.8 17:31:39 23° SE 17:33:43 54° ENE 17:37:21 10° N
ATLAS 2A CENTAUR R/B 4.3 17:35:10 20° S 17:35:10 20° S 17:37:55 10° SE
Cosmos 1190 Rocket 4.4 17:32:50 27° S 17:35:33 59° ESE 17:40:41 10° NNE
DELTA 2 R/B (1) 3.6 17:34:22 10° WNW 17:39:52 57° SSW 17:45:21 10° SE
ATLAS 2A CENTAUR R/B 4.3 17:34:54 23° WSW 17:40:56 40° S 17:45:01 10° ESE
Cosmos 1500 3.2 17:41:59 49° SW 17:42:41 59° W 17:46:28 10° N
COBE Rocket 4.1 17:45:26 29° SSW 17:47:54 55° W 17:52:53 10° NNW
SL-19 R/B 4.0 17:46:00 10° NNE 17:48:47 55° ESE 17:49:33 39° SSE
SL-08 R/B 3.2 17:46:27 23° S 17:49:21 71° WSW 17:54:05 10° NNW
COSMOS 2406 3.2 17:47:28 27° SSW 17:50:46 90° WNW 17:56:34 10° NNE
Lacrosse 5 3.3 17:51:10 17° W 17:54:02 28° NW 17:58:24 10° NNE
Cosmos 1437 Rocket 2.7 17:52:37 10° N 17:56:41 80° W 17:59:25 20° S
Cosmos 1816 Rocket 4.5 17:50:32 10° N 17:56:56 85° W 18:03:17 10° S
CZ-2C R/B 4.4 17:55:16 10° NE 17:59:12 24° E 18:03:02 10° SSE
Cosmos 1666 2.6 17:57:13 26° S 17:59:17 86° E 18:03:06 10° N
CZ-2C R/B 3.1 17:55:35 10° NNE 17:59:37 70° ESE 18:02:24 19° S
SEDSat Delta rocket 4.0 17:57:33 16° W 18:02:46 55° S 18:08:48 10° ESE
IDEFIX/ARIANE 42P 2.5 18:01:44 10° N 18:06:56 79° WNW 18:10:55 17° SSW
Cosmos 2082 Rocket 3.1 18:02:18 10° S 18:07:43 46° ESE 18:13:09 10° NE
GOES 2 Rocket 4.1 18:04:22 21° WSW 18:08:02 42° S 18:12:50 10° ESE
Cosmos 407 Rocket 4.0 18:10:16 22° SW 18:13:27 47° WNW 18:18:36 10° N
Meteor 1-11 Rocket 3.7 18:10:00 17° SSW 18:14:20 67° W 18:19:51 10° N
Cosmos 2233 Rocket 4.0 18:09:25 15° SSW 18:14:37 69° W 18:20:48 10° N
Spot 4 Rocket 4.3 18:09:37 10° N 18:14:37 52° WNW 18:18:13 18° SW
SL-16 R/B 4.3 18:16:17 11° W 18:16:45 11° W 18:18:20 10° WNW
Cosmos 1697 Rocket 4.3 18:11:34 10° N 18:16:47 38° ENE 18:21:57 10° SE
ERS-2 2.0 18:13:40 10° SSE 18:17:18 85° W 18:20:58 10° NNW
ARIANE 5 R/B 3.5 18:15:52 10° N 18:20:18 31° WNW 18:23:23 17° WSW
Aureole 1 Rocket 3.1 18:21:10 21° SW 18:23:28 54° WNW 18:28:01 10° N
Cosmos 676 Rocket 4.0 18:20:33 14° SSW 18:25:01 80° WNW 18:30:18 10° NNE
CZ-4C R/B 4.5 18:24:09 10° WNW 18:28:16 15° WSW 18:30:20 14° WSW
Cosmos 1733 Rocket 3.3 18:25:39 15° SSW 18:29:00 50° W 18:33:13 10° N
Cosmos 1356 3.4 18:26:04 10° S 18:29:27 80° E 18:32:53 10° N
Cosmos 1833 Rocket 2.8 18:25:19 15° SSW 18:29:56 64° WNW 18:35:30 10° NNE
Okean 3 4.1 18:28:02 10° NNW 18:31:51 35° W 18:35:27 11° SSW
Cosmos 2221 Rocket 3.9 18:27:45 10° NNW 18:31:57 44° W 18:36:07 10° SSW
Tsikada Rocket 4.3 18:26:14 10° NNW 18:32:21 48° W 18:38:27 10° SSW
Cosmos 1140 Rocket 4.1 18:29:57 15° SW 18:33:46 40° WNW 18:38:40 10° N
CZ-4C R/B 3.1 18:32:54 10° S 18:36:09 46° W 18:39:20 10° NNW
deb Kosmos-1763 4.3 18:35:50 10° S 18:39:23 68° ESE 18:42:57 10° NNE
Cosmos 1536 3.7 18:36:45 14° SW 18:39:44 32° WNW 18:43:24 10° NNW
SL-8 R/B 4.2 18:36:45 12° WSW 18:41:02 52° NNW 18:45:44 10° NE
Cosmos 1975 4.3 18:40:03 10° SSE 18:43:45 37° E 18:47:27 10° NNE
GPS 2-04 Rocket1 2.7 18:42:04 10° W 18:45:55 85° N 18:49:57 10° E
SOZ 4.5 18:44:16 10° NW 18:47:36 76° SW 18:50:02 10° SE
ASTRO E2 3.1 18:44:19 11° WSW 18:47:57 47° S 18:51:47 10° ESE
Cosmos 1900 4.5 18:43:27 10° SSW 18:48:17 76° ESE 18:53:14 10° NNE
Cosmos 1242 Rocket 3.8 18:48:20 10° N 18:51:39 43° E 18:54:56 10° SSE
MSX 4.3 18:49:46 10° N 18:55:08 43° WNW 19:00:30 10° SW
deb Chang Zheng 4 3.5 18:51:13 10° N 18:55:27 71° WNW 18:59:42 10° SSW
Cosmos 1263 4.1 18:55:49 10° N 18:58:53 88° WNW 19:01:51 10° S
H-2A R/B 3.2 19:00:01 10° SSW 19:03:42 25° W 19:07:24 10° NW
Cosmos 2369 3.8 19:01:25 10° NNW 19:07:11 86° WSW 19:12:54 10° SSE
